Regional Weather Roundup
Issued by NWS Charleston, SC

Current Version | Previous Version | Graphics & Text | Print | Product List | Glossary On
Versions: 1 2 3 4 5 6 7 8 9 10 11 12 13 14 15 16 17 18 19 20 21 22 23 24 25 26 27 28 29 30 31 32 33 34 35 36 37 38 39 40 41 42 43 44 45 46 47 48 49 50
000
ASUS42 KCHS 241025
RWRCHS

REGIONAL WEATHER ROUNDUP
NATIONAL WEATHER SERVICE CHARLESTON SC
600 AM EDT FRI OCT 24 2014

NOTE: "FAIR" INDICATES FEW OR NO CLOUDS BELOW 12,000 FEET WITH NO
SIGNIFICANT WEATHER AND/OR OBSTRUCTIONS TO VISIBILITY.

NOT ALL STATIONS ARE QUALITY CONTROLLED BY THE NATIONAL
WEATHER SERVICE. USE DATA WITH CAUTION...ESPECIALLY
DEWPOINT OBSERVATIONS.

SCZ027-030-031-034>040-042>050-241100-
...SOUTH CAROLINA...

CITY           SKY/WX    TMP DP  RH WIND       PRES   REMARKS
N CHARLESTON   MOCLDY    50  45  83 CALM      30.02S
WATERFRONT PRK   N/A     55 N/A N/A NW6         N/A
FORT JOHNSON   NOT AVBL
JOHNS ISLAND   SUNNY     50  48  93 CALM      30.03R
PINOPOLIS      NOT AVBL
MONCKS CORNER  FAIR      57  50  77 NE5       30.02S
SUMMERVILLE    FAIR      43  43 100 CALM      30.03S
BEAUFORT MCAS  PTCLDY    49  46  90 CALM      30.02R
BEAUFORT ARPT  FAIR      52  52 100 CALM      30.02R
HILTON HEAD IS NOT AVBL
GEORGETOWN     NOT AVBL
WALTERBORO     MOSUNNY   45 N/A N/A W3        30.04R
ORANGEBURG     MOCLDY    47  44  90 CALM      30.02S
BARNWELL       FAIR      43  41  93 CALM      30.04R
AIKEN          FAIR      48  45  87 CALM      30.07S
MANNING        FAIR      46 N/A N/A CALM      30.03R
KINGSTREE      NOT AVBL
COLUMBIA       MOCLDY    47  43  86 W6        30.04R
SUMTER         MOCLDY    49  44  83 N5        30.01S
FLORENCE       CLOUDY    50  43  77 N7        30.02S
MYRTLE BEACH   CLEAR     52  43  71 NW6       30.02R
N MYRTLE BEACH MOCLDY    50  44  80 N7        30.00S

$$

GAZ063-065-086>088-099>101-113>116-118-119-134-136>141-150-241100-
...GEORGIA...

CITY           SKY/WX    TMP DP  RH WIND       PRES   REMARKS
SAVANNAH ARPT  MOCLDY    51  46  83 CALM      30.04R
HUNTER AAF     MOCLDY    48  47  95 W1        30.01R
FORT STEWART   MOCLDY    46  44  92 CALM      30.02R
STATESBORO     NOT AVBL
SYLVANIA       PTSUNNY   50  49  97 CALM      30.05R
CLAXTON        FAIR      45  45 100 CALM      30.05R
THOMSON        MOCLDY    46  46 100 CALM      30.08S
AUGUSTA-BUSH   MOCLDY    43  42  97 CALM      30.03S FOG
AUGUSTA-DANIEL MOCLDY    54  45  71 NW5       30.04R
SWAINSBORO     FAIR      45  45 100 MISG      30.05R
VIDALIA        MOCLDY    50  46  87 CALM      30.04S
ALMA           MOCLDY    47  46  97 CALM      30.03R FOG
WAYCROSS       MOCLDY    50  49  97 CALM      30.04R
JESUP          FAIR      45  45 100 CALM      30.04R
BRUNSWICK      PTCLDY    48  46  93 CALM      30.05R
SAINT SIMONS   PTCLDY    51  51 100 CALM      30.02S

$$

SCZ027-028-034-036>038-045-046-048>050-GAZ119-141-241100-
...LAKE AND SUPPLEMENTAL COASTAL OBSERVATIONS...

STATION/POSITION TIME  TEMP    WIND        PRES    WAVE   SWELL
                       AIR SEA DIR/SP/G            HT/PER HT/PER/DIR
                 (UTC) (F)     (DEG/KT/KT) (MB)    (FT/S) (FT/S/D)
UPR LAKE MARION  NOT AVBL
WINYAH BAY       1000   50     320/  5     1016.0S
LAKE MURRAY      0900   51      CALM  /  2 1016.6R
ACE BASIN NERRS  1000   48        CALM     1016.0S
FORT PULASKI     1000   57     310/  7/  8 1016.9R
SAPELO ISLAND    NOT AVBL

$$

ANZ835-935-AMZ111-154-330-350-352-354-374-450-454-472-241100-
...C-MAN AND BUOY OBSERVATIONS...

STATION/POSITION TIME  TEMP    WIND        PRES    WAVE   SWELL
                       AIR SEA DIR/SP/G            HT/PER HT/PER/DIR
                 (UTC) (F)     (DEG/KT/KT) (MB)    (FT/S) (FT/S/D)
FOLLY BEACH CMAN 1000   54     340/  3/  6 1016.9R
BUOY 41004       1000   68 78  360/ 12/ 16 1015.2R   3/11   3/11
BUOY 41008       1000   69 75   40/  6/ 10 1016.3R   2/ 9   2/ 90/ 9
5E ST. MARYS GA  1000      76                N/A     2/ 8
FRYING PAN BUOY  1000   65 74   10/ 12/ 14 1015.8R   3/11   2/ 70/11
BUOY 41025       1000   62     320/ 17/ 23 1013.6R   5/ 4   2/ 40/11
CAPE LOOKOUT NC  1000   57     340/ 12/ 14 1015.0R
BUOY 41002       0855   72 77  310/  8/ 12 1014.5R   6/10   5/ 10/10
BUOY 41010       1000   74 81   40/ 10/ 14 1014.3R   3/ 8   3/ 30/ 8
BUOY 41012       NOT AVBL
ST AUGUSTINE FL  1000   58     300/  6/  7 1016.2R
CAPERS NEARSHORE NOT AVBL
FRIPP NEARSHORE  NOT AVBL


$$



USA.gov is the U.S. government's official web portal to all federal, state and local government web resources and services.